30.06.2024;16:00;16
30.06.2024;15:00;17
30.06.2024;14:00;21
30.06.2024;13:00;23
30.06.2024;12:00;27
30.06.2024;11:00;30
30.06.2024;10:00;31
30.06.2024;09:00;30
30.06.2024;08:00;31
30.06.2024;07:00;35
30.06.2024;06:00;47
30.06.2024;05:00;47
30.06.2024;04:00;44
30.06.2024;03:00;41
30.06.2024;02:00;40
30.06.2024;01:00;41
29.06.2024;24:00;35
29.06.2024;23:00;34
29.06.2024;22:00;33
29.06.2024;21:00;33
29.06.2024;20:00;35
29.06.2024;19:00;38
29.06.2024;18:00;38
29.06.2024;17:00;35
29.06.2024;16:00;39
29.06.2024;15:00;33
29.06.2024;14:00;28
29.06.2024;13:00;21
29.06.2024;12:00;22
29.06.2024;11:00;15
29.06.2024;10:00;14
29.06.2024;09:00;11
29.06.2024;08:00;13
29.06.2024;07:00;17
29.06.2024;06:00;17
29.06.2024;05:00;17
29.06.2024;04:00;19
29.06.2024;03:00;19
29.06.2024;02:00;20
29.06.2024;01:00;22
28.06.2024;24:00;22
28.06.2024;23:00;24
28.06.2024;22:00;25
28.06.2024;21:00;21
28.06.2024;20:00;19
28.06.2024;19:00;17
28.06.2024;18:00;16
28.06.2024;17:00;17
28.06.2024;16:00;15
28.06.2024;15:00;14
28.06.2024;14:00;12
28.06.2024;13:00;10
28.06.2024;12:00;10
28.06.2024;11:00;12
28.06.2024;10:00;12
28.06.2024;09:00;9
28.06.2024;08:00;12
28.06.2024;07:00;14
28.06.2024;06:00;15
28.06.2024;05:00;17
28.06.2024;04:00;17
28.06.2024;03:00;17
28.06.2024;02:00;16
28.06.2024;01:00;16
27.06.2024;24:00;16
27.06.2024;23:00;19
27.06.2024;22:00;21
27.06.2024;21:00;21
27.06.2024;20:00;19
27.06.2024;19:00;19
27.06.2024;18:00;18
27.06.2024;17:00;19
27.06.2024;16:00;20
27.06.2024;15:00;18
27.06.2024;14:00;14
27.06.2024;13:00;12
27.06.2024;12:00;9
27.06.2024;11:00;8
27.06.2024;10:00;8
27.06.2024;09:00;8
27.06.2024;08:00;10
27.06.2024;07:00;11
27.06.2024;06:00;11
27.06.2024;05:00;10
27.06.2024;04:00;10
27.06.2024;03:00;11
27.06.2024;02:00;11
27.06.2024;01:00;12
26.06.2024;24:00;13
26.06.2024;23:00;13
26.06.2024;22:00;16
26.06.2024;21:00;14
26.06.2024;20:00;14
26.06.2024;19:00;16
26.06.2024;18:00;20
26.06.2024;17:00;23
26.06.2024;16:00;20
26.06.2024;15:00;16
26.06.2024;14:00;15
26.06.2024;13:00;13
26.06.2024;12:00;11
26.06.2024;11:00;13
26.06.2024;10:00;14
26.06.2024;09:00;12
26.06.2024;08:00;15
26.06.2024;07:00;15
26.06.2024;06:00;14
26.06.2024;05:00;18
26.06.2024;04:00;26
26.06.2024;03:00;29
26.06.2024;02:00;28
26.06.2024;01:00;26
25.06.2024;24:00;28
25.06.2024;23:00;28
25.06.2024;22:00;30
25.06.2024;21:00;29
25.06.2024;20:00;28
25.06.2024;19:00;27
25.06.2024;18:00;27
25.06.2024;17:00;29
25.06.2024;16:00;26
25.06.2024;15:00;24
25.06.2024;14:00;20
25.06.2024;13:00;17
25.06.2024;12:00;14
25.06.2024;11:00;12
25.06.2024;10:00;9
25.06.2024;09:00;7
25.06.2024;08:00;6
25.06.2024;07:00;7
25.06.2024;06:00;7
25.06.2024;05:00;8
25.06.2024;04:00;8
25.06.2024;03:00;8
25.06.2024;02:00;9
25.06.2024;01:00;10
